Time,TemperatureF,DewpointF,PressureIn,WindDirection,WindDirectionDegrees,WindSpeedMPH,WindSpeedGustMPH,Humidity,HourlyPrecipIn,Conditions,Clouds,dailyrainin,SolarRadiationWatts/m^2,SoftwareType,DateUTC
2013-04-05 00:12:00,45.0,40.0,-100.00,SW,219,9.0,14.0,83,-99.99,,,0.00,0.000000,,2013-04-05 07:12:00,
2013-04-05 01:12:00,44.0,41.0,-100.00,SSW,196,7.0,9.0,86,-99.99,,,0.00,0.000000,,2013-04-05 08:12:00,
2013-04-05 02:12:00,45.0,40.0,-100.00,South,188,8.0,11.0,84,-99.99,,,0.00,0.000000,,2013-04-05 09:12:00,
2013-04-05 03:12:00,43.0,39.0,-100.00,South,189,6.0,10.0,85,-99.99,,,0.00,0.000000,,2013-04-05 10:12:00,
2013-04-05 04:12:00,42.0,38.0,-100.00,SSW,201,8.0,11.0,87,-99.99,,,0.00,0.000000,,2013-04-05 11:12:00,
2013-04-05 05:12:00,43.0,38.0,-100.00,SSW,204,9.0,12.0,81,-99.99,,,0.00,0.000000,,2013-04-05 12:12:00,
2013-04-05 06:12:00,42.0,38.0,-100.00,SSW,205,9.0,12.0,82,-99.99,,,0.00,0.000000,,2013-04-05 13:12:00,
2013-04-05 07:12:00,45.0,38.0,-100.00,SSW,211,14.0,23.0,76,-99.99,,,0.00,0.000000,,2013-04-05 14:12:00,
2013-04-05 08:12:00,44.0,37.0,-100.00,SSW,204,11.0,15.0,76,-99.99,,,0.00,52.419998,,2013-04-05 15:12:00,
2013-04-05 09:13:00,49.0,38.0,-100.00,SW,226,16.0,25.0,66,-99.99,,,0.00,278.929993,,2013-04-05 16:13:00,
2013-04-05 10:12:00,52.0,38.0,-100.00,SW,227,17.0,23.0,59,-99.99,,,0.00,493.700012,,2013-04-05 17:12:00,
2013-04-05 12:13:00,53.0,37.0,-100.00,WSW,246,16.0,23.0,53,-99.99,,,0.00,324.369995,,2013-04-05 19:13:00,
2013-04-05 13:11:00,56.0,36.0,-100.00,West,269,17.0,29.0,46,-99.99,,,0.00,554.830017,,2013-04-05 20:11:00,
2013-04-05 14:12:00,55.0,37.0,-100.00,West,268,14.0,20.0,49,-99.99,,,0.00,327.510010,,2013-04-05 21:12:00,
2013-04-05 15:13:00,55.0,36.0,-100.00,West,276,14.0,18.0,49,-99.99,,,0.00,178.509995,,2013-04-05 22:13:00,
2013-04-05 16:12:00,55.0,38.0,-100.00,West,272,13.0,18.0,52,-99.99,,,0.00,428.149994,,2013-04-05 23:12:00,
2013-04-05 17:12:00,54.0,38.0,-100.00,WNW,283,13.0,18.0,55,-99.99,,,0.00,87.279999,,2013-04-06 00:12:00,
2013-04-05 18:12:00,52.0,38.0,-100.00,West,263,10.0,14.0,58,-99.99,,,0.00,70.199997,,2013-04-06 01:12:00,
2013-04-05 19:12:00,50.0,41.0,-100.00,SW,233,6.0,8.0,72,-99.99,,,0.00,126.209999,,2013-04-06 02:12:00,
2013-04-05 20:12:00,50.0,40.0,-100.00,SW,234,5.0,12.0,67,-99.99,,,0.00,27.080000,,2013-04-06 03:12:00,
2013-04-05 21:13:00,47.0,40.0,-100.00,South,179,3.0,5.0,76,-99.99,,,0.00,0.000000,,2013-04-06 04:13:00,
2013-04-05 22:12:00,45.0,41.0,-100.00,ESE,111,2.0,11.0,86,-99.99,,,0.00,0.000000,,2013-04-06 05:12:00,
2013-04-05 23:12:00,48.0,39.0,-100.00,SW,217,10.0,14.0,69,-99.99,,,0.00,0.000000,,2013-04-06 06:12:00,